Weather History for Cape Girardeau, MO

Change the Weather History Date:

Thursday, December 6, 2012

  Actual Average Record
Temperature  
Mean Temperature 45 °F 38 °F  
Max Temperature 56 °F 48 °F 71 °F (1998)
Min Temperature 34 °F 29 °F -1 °F (2002)
Degree Days  
Heating Degree Days 20 27  
Month to date heating degree days 60 155  
Since 1 July heating degree days 999 1006  
Cooling Degree Days 0 0  
Month to date cooling degree days 0 0  
Year to date cooling degree days 1784 1453  
Moisture  
Dew Point 46 °F    
Average Humidity 77    
Maximum Humidity 93    
Minimum Humidity 61    
Precipitation  
Precipitation 0.00 in 0.14 in 1.11 in (1971)
Month to date precipitation 0.14 0.88  
Year to date precipitation 25.42 43.44  
Sea Level Pressure  
Sea Level Pressure 30.00 in    
Wind  
Wind Speed 4 mph (SSE)    
Max Wind Speed 14 mph    
Max Gust Speed 17 mph    
Visibility 8 miles    
Events Fog    
T = Trace of Precipitation, MM = Missing Value Source: NWS Daily Summary

Daily Weather History Graph

Daily Weather History Graph

Search for Another Location

Airport:

Trip Planner

Search our weather history database for the weather conditions in past years. The results will help you decide how hot, cold, wet, or windy it might be!

Date:

Astronomy

Dec. 06, 2012 Rise Set
Actual Time 6:58 AM CST 4:40 PM CST
Civil Twilight 6:29 AM CST 5:09 PM CST
Nautical Twilight 5:57 AM CST 5:41 PM CST
Astronomical Twilight 5:25 AM CST 6:13 PM CST
Moon No Moon Rise 11:58 AM CST (12/6)
Length of Visible Light 10h 40m
Length of Day
9h 42m
Waning Gibbous, 49% of the Moon is Illuminated
Dec 6
Waning Gibbous
Dec 13
New
Dec 19
First Quarter
Dec 28
Full
Jan 4
Last Quarter

Hourly Weather History & Observations

Time (CST) Temp. Windchill Dew Point Humidity Pressure Visibility Wind Dir Wind Speed Gust Speed Precip Events Conditions
12:53 AM 37.9 °F - 34.0 °F 86% 30.13 in 10.0 mi Calm Calm - N/A   Clear
1:53 AM 36.0 °F - 33.1 °F 89% 30.14 in 10.0 mi Calm Calm - N/A   Clear
2:53 AM 37.0 °F - 34.0 °F 89% 30.12 in 10.0 mi Calm Calm - N/A   Partly Cloudy
3:53 AM 36.0 °F - 33.1 °F 89% 30.10 in 10.0 mi Calm Calm - N/A   Partly Cloudy
4:53 AM 37.9 °F 34.4 °F 34.0 °F 86% 30.08 in 10.0 mi East 4.6 mph - N/A   Overcast
5:53 AM 39.9 °F 37.8 °F 35.1 °F 83% 30.08 in 10.0 mi ENE 3.5 mph - N/A   Mostly Cloudy
6:53 AM 44.1 °F 41.5 °F 37.0 °F 76% 30.08 in 10.0 mi NE 4.6 mph - N/A   Overcast
7:53 AM 46.0 °F - 37.9 °F 73% 30.09 in 10.0 mi Calm Calm - N/A   Overcast
8:53 AM 46.9 °F - 39.0 °F 74% 30.09 in 10.0 mi Calm Calm - N/A   Overcast
9:53 AM 48.9 °F - 39.9 °F 71% 30.07 in 10.0 mi SE 4.6 mph - N/A   Overcast
10:53 AM 51.1 °F - 41.0 °F 68% 30.06 in 10.0 mi South 5.8 mph - N/A   Overcast
11:53 AM 54.0 °F - 43.0 °F 66% 30.03 in 10.0 mi South 3.5 mph - N/A   Overcast
12:53 PM 55.0 °F - 43.0 °F 64% 30.00 in 10.0 mi Calm Calm - N/A   Overcast
1:53 PM 55.9 °F - 46.0 °F 69% 29.99 in 10.0 mi NW 4.6 mph - N/A   Overcast
2:53 PM 55.9 °F - 48.0 °F 75% 29.97 in 10.0 mi SSE 5.8 mph - N/A   Overcast
3:14 PM 55.4 °F - 48.2 °F 77% 29.96 in 10.0 mi SSE 6.9 mph - N/A   Overcast
3:42 PM 55.4 °F - 48.2 °F 77% 29.97 in 10.0 mi SSE 6.9 mph - N/A   Overcast
3:53 PM 55.9 °F - 48.9 °F 77% 29.97 in 10.0 mi South 4.6 mph - N/A   Overcast
4:53 PM 55.0 °F - 48.9 °F 80% 29.97 in 10.0 mi South 6.9 mph - N/A   Overcast
5:25 PM 53.6 °F - 50.0 °F 88% 29.96 in 6.0 mi SE 5.8 mph - N/A   Overcast
5:37 PM 53.6 °F - 50.0 °F 88% 29.96 in 10.0 mi SSE 8.1 mph - N/A   Overcast
5:53 PM 53.1 °F - 51.1 °F 93% 29.97 in 9.0 mi SSE 13.8 mph - N/A   Overcast
6:35 PM 53.6 °F - 51.8 °F 94% 29.96 in 8.0 mi SE 10.4 mph - N/A   Overcast
6:53 PM 53.1 °F - 51.1 °F 93% 29.96 in 8.0 mi SSE 13.8 mph - N/A   Overcast
7:03 PM 53.6 °F - 51.8 °F 94% 29.96 in 8.0 mi SE 13.8 mph - N/A   Overcast
7:43 PM 53.6 °F - 51.8 °F 94% 29.96 in 7.0 mi SSE 8.1 mph - N/A   Overcast
7:53 PM 53.1 °F - 51.1 °F 93% 29.96 in 6.0 mi SSE 10.4 mph - N/A   Overcast
8:33 PM 53.6 °F - 51.8 °F 94% 29.96 in 5.0 mi SSE 9.2 mph - N/A   Overcast
8:42 PM 53.6 °F - 51.8 °F 94% 29.96 in 6.0 mi SSE 9.2 mph - N/A   Overcast
8:53 PM 53.1 °F - 51.1 °F 93% 29.96 in 6.0 mi SSE 9.2 mph - N/A   Overcast
9:43 PM 53.6 °F - 51.8 °F 94% 29.95 in 4.0 mi SSE 8.1 mph - N/A   Overcast
9:53 PM 53.1 °F - 52.0 °F 96% 29.96 in 4.0 mi South 5.8 mph - N/A   Overcast
10:53 PM 53.1 °F - 52.0 °F 96% 29.96 in 4.0 mi South 3.5 mph - N/A   Overcast
11:07 PM 53.6 °F - 51.8 °F 94% 29.95 in 1.8 mi South 5.8 mph - N/A   Overcast
11:20 PM 53.6 °F - 53.6 °F 100% 29.94 in 0.8 mi SSE 4.6 mph - N/A   Mist
11:48 PM 53.6 °F - 53.6 °F 100% 29.94 in 0.2 mi Calm Calm - N/A Fog Fog
11:53 PM 53.1 °F - 53.1 °F 100% 29.94 in 0.2 mi Calm Calm - N/A Fog Fog